GEC16E EDDF-EGKK

Flight info

Callsign GEC16E
Flight time 1h 3m
Altitude 30000
Route SOBRA2L/18 SOBRA Y180 DIK UN857 TOLVU/N0464F290 DCT RAPOR DCT ENORI/N0469F300 DCT KUNAV
Aircraft B77L/H-SDE1E2E3FGHIJ2J3J4J5M1RWXY/LB1D1

Departure

Time 2026-04-14 21:34
Airport Frankfurt Main Airport (EDDF)

Arrival

Time 2026-04-14 22:38
Airport London Gatwick Airport (EGKK)
Time Latitude Longitude Altitude Speed Heading
2026-04-14 21:01 50.02877 8.56912 350 ft 0 kts 251°
2026-04-14 21:20 50.02882 8.56932 349 ft 2 kts 251°
2026-04-14 21:20 50.02887 8.56954 348 ft 2 kts 251°
2026-04-14 21:21 50.02891 8.56976 348 ft 2 kts 251°
2026-04-14 21:21 50.02896 8.56999 348 ft 2 kts 251°
2026-04-14 21:21 50.02902 8.57021 348 ft 2 kts 261°
2026-04-14 21:21 50.02899 8.57043 348 ft 2 kts 310°
2026-04-14 21:22 50.02887 8.57056 348 ft 2 kts 345°
2026-04-14 21:22 50.02873 8.57062 348 ft 2 kts 342°
2026-04-14 21:22 50.02860 8.57069 348 ft 0 kts 339°
2026-04-14 21:22 50.02866 8.57065 348 ft 4 kts 341°
2026-04-14 21:23 50.02900 8.57046 348 ft 3 kts 340°
2026-04-14 21:23 50.02908 8.57042 348 ft 0 kts 340°
2026-04-14 21:27 50.02919 8.57035 348 ft 2 kts 341°
2026-04-14 21:27 50.02937 8.57026 348 ft 2 kts 341°
2026-04-14 21:28 50.02971 8.57007 348 ft 8 kts 340°
2026-04-14 21:28 50.03033 8.56974 348 ft 10 kts 342°
2026-04-14 21:28 50.03105 8.56936 346 ft 11 kts 342°
2026-04-14 21:28 50.03182 8.56892 345 ft 12 kts 340°
2026-04-14 21:29 50.03260 8.56844 345 ft 11 kts 337°
2026-04-14 21:29 50.03330 8.56790 345 ft 11 kts 320°
2026-04-14 21:29 50.03341 8.56682 345 ft 10 kts 251°
2026-04-14 21:29 50.03317 8.56573 345 ft 10 kts 250°
2026-04-14 21:30 50.03293 8.56467 344 ft 11 kts 251°
2026-04-14 21:30 50.03261 8.56334 343 ft 13 kts 247°
2026-04-14 21:30 50.03228 8.56202 342 ft 13 kts 250°
2026-04-14 21:30 50.03197 8.56064 342 ft 13 kts 252°
2026-04-14 21:31 50.03167 8.55930 342 ft 12 kts 251°
2026-04-14 21:31 50.03139 8.55804 342 ft 12 kts 251°
2026-04-14 21:31 50.03109 8.55670 340 ft 13 kts 250°
2026-04-14 21:31 50.03075 8.55540 340 ft 12 kts 248°
2026-04-14 21:32 50.03046 8.55419 340 ft 12 kts 248°
2026-04-14 21:32 50.03012 8.55292 338 ft 13 kts 248°
2026-04-14 21:32 50.02981 8.55164 339 ft 12 kts 250°
2026-04-14 21:32 50.02951 8.55033 337 ft 13 kts 249°
2026-04-14 21:33 50.02919 8.54899 337 ft 12 kts 251°
2026-04-14 21:33 50.02921 8.54770 337 ft 12 kts 290°
2026-04-14 21:33 50.02987 8.54667 335 ft 15 kts 345°
2026-04-14 21:33 50.03069 8.54753 335 ft 18 kts 66°
2026-04-14 21:34 50.03167 8.55159 338 ft 74 kts 70°
2026-04-14 21:34 50.03438 8.56280 344 ft 144 kts 70°
2026-04-14 21:34 50.03796 8.57758 570 ft 176 kts 68°
2026-04-14 21:34 50.04251 8.59656 1462 ft 175 kts 69°
2026-04-14 21:35 50.04667 8.61312 2309 ft 171 kts 69°
2026-04-14 21:35 50.05123 8.63125 2951 ft 189 kts 69°
2026-04-14 21:35 50.05610 8.65057 3708 ft 204 kts 69°
2026-04-14 21:35 50.06149 8.67200 4511 ft 220 kts 69°
2026-04-14 21:36 50.06723 8.69479 5327 ft 236 kts 69°
2026-04-14 21:36 50.07319 8.71894 6136 ft 252 kts 72°
2026-04-14 21:36 50.07429 8.74641 7035 ft 266 kts 101°
2026-04-14 21:36 50.06644 8.77259 7993 ft 277 kts 129°
2026-04-14 21:37 50.05106 8.79093 8970 ft 284 kts 157°
2026-04-14 21:37 50.03184 8.79676 9900 ft 289 kts 184°
2026-04-14 21:37 50.01252 8.78902 10780 ft 295 kts 208°
2026-04-14 21:37 49.99612 8.76892 11380 ft 312 kts 228°
2026-04-14 21:38 49.97968 8.74609 11957 ft 332 kts 212°
2026-04-14 21:38 49.95773 8.73231 12586 ft 350 kts 195°
2026-04-14 21:38 49.93393 8.72334 13438 ft 360 kts 193°
2026-04-14 21:38 49.90935 8.71467 14412 ft 366 kts 193°
2026-04-14 21:39 49.88456 8.70586 15468 ft 369 kts 193°
2026-04-14 21:39 49.85983 8.69665 16420 ft 374 kts 198°
2026-04-14 21:39 49.83577 8.68072 17326 ft 378 kts 211°
2026-04-14 21:39 49.81457 8.65758 18211 ft 382 kts 223°
2026-04-14 21:40 49.79622 8.62755 19124 ft 384 kts 235°
2026-04-14 21:40 49.78222 8.59284 19951 ft 387 kts 246°
2026-04-14 21:40 49.77280 8.55380 20747 ft 390 kts 258°
2026-04-14 21:40 49.76849 8.51205 21331 ft 399 kts 270°
2026-04-14 21:41 49.76807 8.46907 21767 ft 413 kts 272°
2026-04-14 21:41 49.76734 8.42378 22273 ft 427 kts 270°
2026-04-14 21:41 49.76747 8.37780 22984 ft 431 kts 278°
2026-04-14 21:41 49.77224 8.33257 23775 ft 431 kts 285°
2026-04-14 21:42 49.77947 8.28724 24608 ft 434 kts 287°
2026-04-14 21:42 49.78685 8.24189 25341 ft 438 kts 287°
2026-04-14 21:42 49.79428 8.19605 26010 ft 445 kts 288°
2026-04-14 21:42 49.80172 8.14999 26699 ft 450 kts 288°
2026-04-14 21:43 49.80929 8.10275 27498 ft 453 kts 288°
2026-04-14 21:43 49.81684 8.05543 28296 ft 456 kts 288°
2026-04-14 21:43 49.82440 8.00789 28968 ft 461 kts 289°
2026-04-14 21:43 49.83205 7.95946 29672 ft 466 kts 289°
2026-04-14 21:44 49.83964 7.91115 30545 ft 466 kts 289°
2026-04-14 21:44 49.84719 7.86290 31491 ft 462 kts 289°
2026-04-14 21:44 49.85463 7.81514 32556 ft 454 kts 290°
2026-04-14 21:44 49.86187 7.76852 33557 ft 447 kts 291°
2026-04-14 21:45 49.86922 7.72189 34384 ft 442 kts 291°
2026-04-14 21:45 49.87652 7.67537 34988 ft 442 kts 291°
2026-04-14 21:45 49.88377 7.62868 35565 ft 441 kts 290°
2026-04-14 21:45 49.89084 7.58291 36047 ft 443 kts 290°
2026-04-14 21:46 49.89807 7.53608 36235 ft 444 kts 290°
2026-04-14 21:46 49.90529 7.48908 36243 ft 450 kts 290°
2026-04-14 21:46 49.91981 7.39419 36236 ft 454 kts 290°
2026-04-14 21:47 49.93414 7.29977 36244 ft 453 kts 290°
2026-04-14 21:47 49.94852 7.20455 36244 ft 453 kts 289°
2026-04-14 21:48 49.96272 7.10992 36241 ft 452 kts 289°
2026-04-14 21:48 49.97696 7.01442 36246 ft 452 kts 289°
2026-04-14 21:49 49.99000 6.91900 36240 ft 455 kts 284°
2026-04-14 21:49 49.99073 6.81955 36241 ft 466 kts 275°
2026-04-14 21:50 49.98779 6.71919 36233 ft 465 kts 275°
2026-04-14 21:50 49.98465 6.61834 36226 ft 467 kts 273°
2026-04-14 21:51 49.97058 6.51893 36223 ft 482 kts 257°
2026-04-14 21:51 49.94436 6.42322 36230 ft 486 kts 255°
2026-04-14 21:52 49.91721 6.32676 36222 ft 486 kts 253°
2026-04-14 21:52 49.88960 6.23093 36222 ft 489 kts 252°
2026-04-14 21:53 49.86190 6.13621 36221 ft 493 kts 248°
2026-04-14 21:53 49.82332 6.04677 36223 ft 499 kts 242°
2026-04-14 21:54 49.78288 5.95889 36226 ft 502 kts 242°
2026-04-14 21:54 49.74432 5.86984 36228 ft 492 kts 250°
2026-04-14 21:55 49.71919 5.77306 36222 ft 483 kts 258°
2026-04-14 21:55 49.69676 5.67649 36222 ft 482 kts 258°
2026-04-14 21:56 49.67400 5.57894 36221 ft 480 kts 258°
2026-04-14 21:56 49.65126 5.48193 36219 ft 483 kts 258°
2026-04-14 21:57 49.63988 5.43355 36560 ft 484 kts 258°
2026-04-14 21:57 49.62849 5.38531 36271 ft 482 kts 258°
2026-04-14 21:57 49.60718 5.28888 36228 ft 475 kts 259°
2026-04-14 21:58 49.58979 5.19088 36230 ft 469 kts 269°
2026-04-14 21:58 49.58203 5.09163 36229 ft 465 kts 270°
2026-04-14 21:59 49.57456 4.99282 36231 ft 466 kts 271°
2026-04-14 21:59 49.56697 4.89412 36229 ft 462 kts 270°
2026-04-14 22:00 49.55933 4.79594 36232 ft 463 kts 270°
2026-04-14 22:00 49.55158 4.69783 36235 ft 462 kts 270°
2026-04-14 22:01 49.54374 4.59970 36230 ft 461 kts 270°
2026-04-14 22:01 49.53582 4.50152 36223 ft 463 kts 270°
2026-04-14 22:02 49.52782 4.40365 36218 ft 461 kts 270°
2026-04-14 22:02 49.51969 4.30516 36220 ft 463 kts 269°
2026-04-14 22:03 49.51155 4.20751 36218 ft 462 kts 269°
2026-04-14 22:03 49.50330 4.10979 36215 ft 462 kts 269°
2026-04-14 22:04 49.49497 4.01189 36214 ft 463 kts 269°
2026-04-14 22:04 49.48654 3.91405 36209 ft 459 kts 269°
2026-04-14 22:05 49.48400 3.81771 36212 ft 450 kts 282°
2026-04-14 22:05 49.49844 3.72491 36205 ft 436 kts 297°
2026-04-14 22:06 49.52693 3.64389 36211 ft 430 kts 307°
2026-04-14 22:06 49.55872 3.56673 36208 ft 426 kts 306°
2026-04-14 22:07 49.59012 3.48934 36210 ft 430 kts 306°
2026-04-14 22:07 49.62152 3.41114 36208 ft 428 kts 306°
2026-04-14 22:08 49.65270 3.33301 36211 ft 428 kts 305°
2026-04-14 22:08 49.68371 3.25493 36213 ft 428 kts 305°
2026-04-14 22:09 49.71458 3.17688 36208 ft 427 kts 305°
2026-04-14 22:09 49.74561 3.09817 36198 ft 428 kts 305°
2026-04-14 22:10 49.77620 3.02031 36194 ft 427 kts 304°
2026-04-14 22:10 49.80691 2.94191 36192 ft 428 kts 304°
2026-04-14 22:11 49.83762 2.86328 36193 ft 426 kts 304°
2026-04-14 22:11 49.86806 2.78512 36190 ft 427 kts 304°
2026-04-14 22:12 49.89859 2.70645 36193 ft 425 kts 304°
2026-04-14 22:12 49.92903 2.62781 36192 ft 426 kts 304°
2026-04-14 22:13 49.95939 2.54913 36191 ft 427 kts 304°
2026-04-14 22:13 49.98965 2.47046 36188 ft 426 kts 303°
2026-04-14 22:14 50.01996 2.39144 36183 ft 428 kts 303°
2026-04-14 22:14 50.05000 2.31285 36164 ft 419 kts 303°
2026-04-14 22:15 50.07932 2.23591 35976 ft 410 kts 303°
2026-04-14 22:15 50.09370 2.19814 35624 ft 411 kts 303°
2026-04-14 22:15 50.10845 2.15932 35098 ft 416 kts 302°
2026-04-14 22:16 50.12305 2.12085 34655 ft 419 kts 302°
2026-04-14 22:16 50.13779 2.08192 34321 ft 418 kts 302°
2026-04-14 22:16 50.15236 2.04338 33778 ft 415 kts 302°
2026-04-14 22:16 50.16699 2.00462 33124 ft 414 kts 302°
2026-04-14 22:17 50.18171 1.96558 32407 ft 415 kts 302°
2026-04-14 22:17 50.19646 1.92644 31695 ft 433 kts 302°
2026-04-14 22:17 50.21201 1.88510 30963 ft 444 kts 302°
2026-04-14 22:17 50.22746 1.84389 30523 ft 439 kts 301°
2026-04-14 22:18 50.24262 1.80341 30108 ft 434 kts 301°
2026-04-14 22:18 50.25785 1.76269 29645 ft 434 kts 301°
2026-04-14 22:18 50.27296 1.72224 29162 ft 433 kts 301°
2026-04-14 22:18 50.28800 1.68189 28676 ft 430 kts 301°
2026-04-14 22:19 50.30294 1.64178 28193 ft 427 kts 301°
2026-04-14 22:19 50.33248 1.56223 27209 ft 421 kts 301°
2026-04-14 22:19 50.34710 1.52279 26715 ft 417 kts 301°
2026-04-14 22:20 50.36144 1.48404 26221 ft 415 kts 301°
2026-04-14 22:20 50.37584 1.44507 25716 ft 413 kts 301°
2026-04-14 22:20 50.39017 1.40623 25218 ft 411 kts 300°
2026-04-14 22:20 50.40429 1.36791 24717 ft 409 kts 300°
2026-04-14 22:21 50.41849 1.32930 24219 ft 406 kts 299°
2026-04-14 22:21 50.43243 1.29134 23725 ft 403 kts 300°
2026-04-14 22:21 50.44644 1.25315 23216 ft 401 kts 299°
2026-04-14 22:21 50.46032 1.21524 22707 ft 399 kts 299°
2026-04-14 22:22 50.47393 1.17802 22204 ft 396 kts 299°
2026-04-14 22:22 50.48756 1.14068 21692 ft 394 kts 299°
2026-04-14 22:22 50.50103 1.10374 21181 ft 392 kts 299°
2026-04-14 22:22 50.51526 1.06706 20668 ft 389 kts 305°
2026-04-14 22:23 50.53243 1.03477 20163 ft 387 kts 312°
2026-04-14 22:23 50.55067 1.00435 19661 ft 384 kts 312°
2026-04-14 22:23 50.56898 0.97386 19150 ft 382 kts 312°
2026-04-14 22:23 50.58695 0.94378 18637 ft 379 kts 312°
2026-04-14 22:24 50.60499 0.91349 18129 ft 376 kts 312°
2026-04-14 22:24 50.62260 0.88382 17638 ft 373 kts 312°
2026-04-14 22:24 50.64022 0.85407 17134 ft 370 kts 312°
2026-04-14 22:24 50.65778 0.82437 16625 ft 367 kts 311°
2026-04-14 22:25 50.67500 0.79519 16128 ft 364 kts 311°
2026-04-14 22:25 50.69127 0.76516 15615 ft 362 kts 308°
2026-04-14 22:25 50.70671 0.73436 15086 ft 360 kts 307°
2026-04-14 22:25 50.72221 0.70348 14559 ft 358 kts 307°
2026-04-14 22:26 50.73763 0.67295 14040 ft 357 kts 307°
2026-04-14 22:26 50.75312 0.64239 13525 ft 355 kts 307°
2026-04-14 22:26 50.76830 0.61247 13021 ft 353 kts 307°
2026-04-14 22:26 50.78358 0.58237 12507 ft 351 kts 307°
2026-04-14 22:27 50.79879 0.55240 11998 ft 349 kts 307°
2026-04-14 22:27 50.81411 0.52219 11484 ft 347 kts 307°
2026-04-14 22:27 50.82880 0.49318 10991 ft 345 kts 307°
2026-04-14 22:27 50.84434 0.46250 10476 ft 343 kts 307°
2026-04-14 22:28 50.86022 0.43111 9946 ft 341 kts 307°
2026-04-14 22:28 50.87581 0.40024 9353 ft 342 kts 307°
2026-04-14 22:28 50.89145 0.36925 8785 ft 341 kts 307°
2026-04-14 22:28 50.90649 0.33941 8227 ft 338 kts 306°
2026-04-14 22:29 50.92069 0.31123 7744 ft 324 kts 305°
2026-04-14 22:29 50.93452 0.28377 7321 ft 310 kts 305°
2026-04-14 22:29 50.94771 0.25753 6897 ft 299 kts 305°
2026-04-14 22:29 50.96077 0.23249 6378 ft 293 kts 306°
2026-04-14 22:30 50.97334 0.20770 5824 ft 289 kts 304°
2026-04-14 22:30 50.98555 0.18262 5287 ft 285 kts 303°
2026-04-14 22:30 50.99748 0.15766 4765 ft 281 kts 303°
2026-04-14 22:30 51.01026 0.13444 4256 ft 283 kts 320°
2026-04-14 22:31 51.02784 0.12187 3982 ft 275 kts 349°
2026-04-14 22:31 51.04683 0.11959 3992 ft 275 kts 358°
2026-04-14 22:31 51.06571 0.12028 3982 ft 273 kts
2026-04-14 22:31 51.08456 0.12172 3985 ft 272 kts
2026-04-14 22:32 51.10364 0.12333 3985 ft 273 kts
2026-04-14 22:32 51.12253 0.12491 3984 ft 273 kts
2026-04-14 22:32 51.14157 0.12651 3986 ft 274 kts
2026-04-14 22:32 51.16051 0.12810 3985 ft 273 kts
2026-04-14 22:33 51.17933 0.12501 3966 ft 271 kts 339°
2026-04-14 22:33 51.19516 0.10991 3627 ft 264 kts 310°
2026-04-14 22:33 51.20421 0.08582 3292 ft 250 kts 281°
2026-04-14 22:33 51.20454 0.05942 2990 ft 235 kts 250°
2026-04-14 22:34 51.19690 0.03779 2860 ft 217 kts 227°
2026-04-14 22:34 51.18717 0.02008 2593 ft 208 kts 225°
2026-04-14 22:34 51.17817 0.00394 2356 ft 183 kts 225°
2026-04-14 22:34 51.17195 -0.01259 2145 ft 172 kts 250°
2026-04-14 22:35 51.17014 -0.03060 1958 ft 159 kts 253°
2026-04-14 22:35 51.16787 -0.04706 1775 ft 144 kts 250°
2026-04-14 22:35 51.16572 -0.06231 1600 ft 137 kts 251°
2026-04-14 22:35 51.16369 -0.07711 1397 ft 137 kts 251°
2026-04-14 22:36 51.16163 -0.09192 1201 ft 138 kts 252°
2026-04-14 22:36 51.15956 -0.10697 1014 ft 138 kts 253°
2026-04-14 22:36 51.15761 -0.12168 835 ft 137 kts 252°
2026-04-14 22:36 51.15550 -0.13687 661 ft 141 kts 254°
2026-04-14 22:37 51.15331 -0.15231 458 ft 143 kts 253°
2026-04-14 22:37 51.15125 -0.16739 289 ft 138 kts 255°
2026-04-14 22:37 51.14929 -0.18197 207 ft 124 kts 258°
2026-04-14 22:37 51.14797 -0.19181 206 ft 66 kts 259°
2026-04-14 22:38 51.14714 -0.19809 206 ft 52 kts 263°
2026-04-14 22:38 51.14740 -0.20245 206 ft 28 kts 282°
2026-04-14 22:38 51.14777 -0.20511 206 ft 22 kts 284°
2026-04-14 22:38 51.14864 -0.20602 206 ft 19 kts 58°
2026-04-14 22:39 51.14898 -0.20406 206 ft 18 kts 77°
2026-04-14 22:39 51.14926 -0.20216 206 ft 17 kts 77°
2026-04-14 22:39 51.14951 -0.20039 206 ft 16 kts 78°
2026-04-14 22:39 51.14975 -0.19856 206 ft 17 kts 77°
2026-04-14 22:40 51.15004 -0.19648 206 ft 20 kts 77°
2026-04-14 22:40 51.15032 -0.19442 206 ft 17 kts 78°
2026-04-14 22:40 51.15053 -0.19264 206 ft 15 kts 78°
2026-04-14 22:40 51.15073 -0.19108 206 ft 14 kts 77°
2026-04-14 22:41 51.15101 -0.18933 206 ft 15 kts 77°
2026-04-14 22:41 51.15124 -0.18774 206 ft 13 kts 76°
2026-04-14 22:41 51.15193 -0.18709 206 ft 12 kts 334°
2026-04-14 22:41 51.15207 -0.18823 206 ft 10 kts 257°
2026-04-14 22:42 51.15202 -0.18857 206 ft 0 kts 258°